| time (UTC) | temp F | wind direction | speed MPH | gust MPH | rain 1hr in | rain 24hr in | rain mn in | humidity % | barometer mb |
| 20260906234411 | 72 | 186 | 2.0 | 7.0 | 0.00 | 0.01 | 0.01 | 52 | 1013.1 |
| 20260906233911 | 71 | 136 | 2.0 | 7.0 | 0.00 | 0.01 | 0.01 | 49 | 1013.1 |
| 20260906233408 | 72 | 113 | 2.0 | 9.0 | 0.00 | 0.01 | 0.01 | 48 | 1013.2 |
| 20260906233138 | 72 | 174 | 2.0 | 9.0 | 0.00 | 0.01 | 0.01 | 50 | 1013.1 |
| 20260906232410 | 72 | 116 | 2.0 | 5.0 | 0.00 | 0.01 | 0.01 | 47 | 1013.2 |
| 20260906231908 | 72 | 304 | 1.0 | 6.0 | 0.00 | 0.01 | 0.01 | 49 | 1013.2 |
| 20260906231407 | 72 | 210 | 1.0 | 6.0 | 0.00 | 0.01 | 0.01 | 48 | 1013.2 |
| 20260906230908 | 72 | 129 | 2.0 | 8.0 | 0.00 | 0.01 | 0.01 | 48 | 1013.2 |
| 20260906230404 | 73 | 355 | 2.0 | 8.0 | 0.00 | 0.01 | 0.01 | 52 | 1013.2 |
| 20260906225905 | 73 | 203 | 2.0 | 7.0 | 0.00 | 0.01 | 0.01 | 50 | 1013.3 |
| 20260906225406 | 73 | 166 | 1.0 | 7.0 | 0.00 | 0.01 | 0.01 | 50 | 1013.2 |
| 20260906224903 | 74 | 227 | 1.0 | 4.0 | 0.00 | 0.01 | 0.01 | 52 | 1013.3 |
| 20260906224850 | 74 | 214 | 1.0 | 4.0 | 0.00 | 0.01 | 0.01 | 46 | 1013.3 |
| 20260906223901 | 74 | 194 | 1.0 | 6.0 | 0.00 | 0.01 | 0.01 | 52 | 1013.2 |
| 20260906223402 | 74 | 138 | 2.0 | 6.0 | 0.00 | 0.01 | 0.01 | 49 | 1013.2 |
| 20260906222905 | 74 | 185 | 1.0 | 9.0 | 0.00 | 0.01 | 0.01 | 50 | 1013.3 |
| 20260906222412 | 73 | 200 | 2.0 | 9.0 | 0.00 | 0.01 | 0.01 | 50 | 1013.2 |
| 20260906221903 | 74 | 113 | 1.0 | 6.0 | 0.00 | 0.01 | 0.01 | 50 | 1013.2 |
| 20260906221627 | 73 | 166 | 1.0 | 5.0 | 0.00 | 0.01 | 0.01 | 54 | 1013.2 |
| 20260906220850 | 73 | 170 | 2.0 | 9.0 | 0.00 | 0.01 | 0.01 | 51 | 1013.3 |
| 20260906220347 | 73 | 149 | 2.0 | 9.0 | 0.00 | 0.01 | 0.01 | 50 | 1013.2 |
| 20260906215839 | 73 | 342 | 2.0 | 9.0 | 0.00 | 0.01 | 0.01 | 56 | 1013.1 |
| 20260906215336 | 73 | 196 | 2.0 | 9.0 | 0.00 | 0.01 | 0.01 | 55 | 1013.1 |
| 20260906215039 | 72 | 140 | 1.0 | 6.0 | 0.00 | 0.01 | 0.01 | 53 | 1013.0 |
| 20260906214923 | 73 | 247 | 2.0 | 6.0 | 0.00 | 0.01 | 0.01 | 52 | 1013.1 |
| 20260906213814 | 72 | 79 | 1.0 | 6.0 | 0.00 | 0.01 | 0.01 | 58 | 1013.1 |
| 20260906213309 | 72 | 134 | 1.0 | 6.0 | 0.00 | 0.01 | 0.01 | 57 | 1013.1 |
| 20260906212802 | 72 | 138 | 2.0 | 6.0 | 0.00 | 0.01 | 0.01 | 53 | 1013.2 |
| 20260906212259 | 72 | 201 | 2.0 | 6.0 | 0.00 | 0.01 | 0.01 | 53 | 1013.2 |
| 20260906211755 | 72 | 5 | 2.0 | 5.0 | 0.00 | 0.01 | 0.01 | 54 | 1013.2 |
| 20260906211245 | 72 | 148 | 2.0 | 5.0 | 0.00 | 0.01 | 0.01 | 56 | 1013.2 |
| 20260906210739 | 71 | 200 | 2.0 | 6.0 | 0.00 | 0.01 | 0.01 | 55 | 1013.2 |
| 20260906210230 | 71 | 140 | 2.0 | 6.0 | 0.00 | 0.01 | 0.01 | 53 | 1013.2 |
| 20260906205729 | 71 | 144 | 3.0 | 9.0 | 0.00 | 0.01 | 0.01 | 55 | 1013.3 |
| 20260906205218 | 70 | 199 | 3.0 | 9.0 | 0.00 | 0.01 | 0.01 | 58 | 1013.3 |
| 20260906204939 | 70 | 177 | 2.0 | 9.0 | 0.00 | 0.01 | 0.01 | 60 | 1013.2 |
| 20260906204205 | 69 | 148 | 3.0 | 9.0 | 0.00 | 0.01 | 0.01 | 60 | 1013.3 |
| 20260906203700 | 69 | 140 | 3.0 | 9.0 | 0.00 | 0.01 | 0.01 | 56 | 1013.4 |
| 20260906203154 | 70 | 159 | 3.0 | 9.0 | 0.00 | 0.01 | 0.01 | 59 | 1013.4 |
| 20260906202651 | 69 | 219 | 3.0 | 6.0 | 0.00 | 0.01 | 0.01 | 58 | 1013.4 |
| 20260906202145 | 69 | 165 | 3.0 | 9.0 | 0.00 | 0.01 | 0.01 | 58 | 1013.6 |
| 20260906201640 | 69 | 156 | 2.0 | 9.0 | 0.00 | 0.01 | 0.01 | 60 | 1013.5 |
| 20260906201134 | 69 | 159 | 2.0 | 6.0 | 0.00 | 0.01 | 0.01 | 58 | 1013.6 |
| 20260906200628 | 69 | 121 | 2.0 | 6.0 | 0.00 | 0.01 | 0.01 | 59 | 1013.5 |
| 20260906200127 | 69 | 187 | 2.0 | 6.0 | 0.00 | 0.01 | 0.01 | 64 | 1013.6 |
| 20260906195624 | 69 | 210 | 2.0 | 6.0 | 0.00 | 0.01 | 0.01 | 64 | 1013.6 |
| 20260906195343 | 68 | 226 | 2.0 | 5.0 | 0.00 | 0.01 | 0.01 | 63 | 1013.6 |
| 20260906194622 | 68 | 223 | 2.0 | 5.0 | 0.00 | 0.01 | 0.01 | 61 | 1013.6 |
| 20260906194123 | 68 | 355 | 2.0 | 5.0 | 0.00 | 0.01 | 0.01 | 62 | 1013.7 |
| 20260906193623 | 67 | 169 | 2.0 | 7.0 | 0.00 | 0.01 | 0.01 | 65 | 1013.7 |
| 20260906193122 | 68 | 136 | 2.0 | 7.0 | 0.00 | 0.01 | 0.01 | 63 | 1013.8 |
| 20260906192623 | 67 | 190 | 1.0 | 5.0 | 0.00 | 0.01 | 0.01 | 64 | 1013.8 |
| 20260906192123 | 68 | 138 | 2.0 | 5.0 | 0.00 | 0.01 | 0.01 | 62 | 1013.8 |
| 20260906191626 | 67 | 197 | 2.0 | 9.0 | 0.00 | 0.01 | 0.01 | 64 | 1014.0 |
| 20260906191123 | 67 | 138 | 1.0 | 9.0 | 0.00 | 0.01 | 0.01 | 64 | 1014.0 |
| 20260906190621 | 67 | 111 | 1.0 | 6.0 | 0.00 | 0.01 | 0.01 | 68 | 1014.1 |
| 20260906190120 | 67 | 196 | 1.0 | 6.0 | 0.00 | 0.01 | 0.01 | 66 | 1014.1 |
| 20260906185620 | 66 | 126 | 1.0 | 7.0 | 0.00 | 0.01 | 0.01 | 67 | 1014.2 |
| 20260906185119 | 66 | 205 | 1.0 | 7.0 | 0.00 | 0.01 | 0.01 | 70 | 1014.3 |
| 20260906184615 | 65 | 26 | 1.0 | 4.0 | 0.00 | 0.01 | 0.01 | 72 | 1014.3 |
| 20260906184117 | 65 | 168 | 1.0 | 7.0 | 0.00 | 0.01 | 0.01 | 68 | 1014.4 |
| 20260906183611 | 65 | 304 | 1.0 | 7.0 | 0.00 | 0.01 | 0.01 | 70 | 1014.4 |
| 20260906183105 | 65 | 61 | 1.0 | 5.0 | 0.00 | 0.01 | 0.01 | 71 | 1014.5 |
| 20260906182559 | 65 | 44 | 1.0 | 4.0 | 0.00 | 0.01 | 0.01 | 70 | 1014.5 |
| 20260906182052 | 64 | 226 | 1.0 | 6.0 | 0.00 | 0.01 | 0.01 | 75 | 1014.5 |
| 20260906181552 | 64 | 261 | 2.0 | 6.0 | 0.00 | 0.01 | 0.01 | 76 | 1014.6 |
| 20260906181052 | 63 | 177 | 1.0 | 6.0 | 0.00 | 0.01 | 0.01 | 76 | 1014.6 |
| 20260906180554 | 62 | 19 | 1.0 | 4.0 | 0.00 | 0.01 | 0.01 | 80 | 1014.5 |
| 20260906180055 | 61 | 163 | 2.0 | 8.0 | 0.00 | 0.01 | 0.01 | 78 | 1014.5 |
| 20260906175553 | 60 | 169 | 1.0 | 8.0 | 0.00 | 0.01 | 0.01 | 85 | 1014.6 |
| 20260906175053 | 58 | 341 | 1.0 | 4.0 | 0.00 | 0.01 | 0.01 | 87 | 1014.5 |
| 20260906174553 | 57 | 233 | 1.0 | 4.0 | 0.00 | 0.01 | 0.01 | 90 | 1014.5 |
| 20260906174051 | 55 | 219 | 1.0 | 3.0 | 0.00 | 0.01 | 0.01 | 95 | 1014.5 |
| 20260906173552 | 55 | 157 | 0.0 | 4.0 | 0.00 | 0.01 | 0.01 | 98 | 1014.4 |
| 20260906173052 | 54 | 168 | 1.0 | 4.0 | 0.00 | 0.01 | 0.01 | 98 | 1014.4 |
| 20260906172552 | 54 | 161 | 0.0 | 2.0 | 0.00 | 0.01 | 0.01 | 98 | 1014.6 |
| 20260906172051 | 53 | 131 | 0.0 | 1.0 | 0.00 | 0.01 | 0.01 | 98 | 1014.5 |
| 20260906171551 | 53 | 195 | 0.0 | 1.0 | 0.00 | 0.01 | 0.01 | 98 | 1014.6 |
| 20260906171052 | 53 | 198 | 0.0 | 0.0 | 0.00 | 0.01 | 0.01 | 98 | 1014.8 |
| 20260906170551 | 53 | 228 | 0.0 | 0.0 | 0.00 | 0.01 | 0.01 | 98 | 1015.0 |
| 20260906170054 | 52 | 228 | 0.0 | 0.0 | 0.00 | 0.01 | 0.01 | 98 | 1015.0 |
| 20260906165556 | 51 | 228 | 0.0 | 0.0 | 0.00 | 0.01 | 0.01 | 98 | 1015.1 |
| 20260906165050 | 50 | 228 | 0.0 | 0.0 | 0.00 | 0.01 | 0.01 | 98 | 1015.1 |
| 20260906164553 | 49 | 228 | 0.0 | 0.0 | 0.00 | 0.01 | 0.01 | 97 | 1015.2 |
| 20260906164047 | 49 | 228 | 0.0 | 0.0 | 0.00 | 0.01 | 0.01 | 98 | 1015.2 |
| 20260906163541 | 49 | 228 | 0.0 | 0.0 | 0.00 | 0.01 | 0.01 | 97 | 1015.2 |
| 20260906163036 | 48 | 228 | 0.0 | 0.0 | 0.00 | 0.01 | 0.01 | 97 | 1015.2 |
| 20260906162529 | 47 | 228 | 0.0 | 0.0 | 0.00 | 0.01 | 0.01 | 97 | 1015.2 |
| 20260906162023 | 47 | 228 | 0.0 | 0.0 | 0.00 | 0.01 | 0.01 | 97 | 1015.2 |
| 20260906161741 | 47 | 228 | 0.0 | 0.0 | 0.00 | 0.01 | 0.01 | 97 | 1015.2 |
| 20260906161010 | 46 | 228 | 0.0 | 0.0 | 0.00 | 0.01 | 0.01 | 97 | 1015.3 |
| 20260906160505 | 46 | 228 | 0.0 | 0.0 | 0.00 | 0.01 | 0.01 | 97 | 1015.2 |
| 20260906155959 | 46 | 228 | 0.0 | 1.0 | 0.00 | 0.01 | 0.01 | 97 | 1015.2 |
| 20260906154947 | 45 | 229 | 0.0 | 0.0 | 0.00 | 0.01 | 0.01 | 97 | 1015.2 |
| 20260906154441 | 45 | 229 | 0.0 | 0.0 | 0.00 | 0.01 | 0.01 | 97 | 1015.2 |
| 20260906153935 | 45 | 229 | 0.0 | 0.0 | 0.00 | 0.01 | 0.01 | 97 | 1015.2 |
| 20260906153431 | 45 | 229 | 0.0 | 0.0 | 0.00 | 0.01 | 0.01 | 97 | 1015.2 |
| 20260906153145 | 45 | 229 | 0.0 | 0.0 | 0.00 | 0.01 | 0.01 | 97 | 1015.1 |
| 20260906152416 | 44 | 229 | 0.0 | 0.0 | 0.00 | 0.01 | 0.01 | 97 | 1015.2 |
| 20260906151911 | 44 | 229 | 0.0 | 0.0 | 0.00 | 0.01 | 0.01 | 97 | 1015.1 |
| 20260906151407 | 44 | 229 | 0.0 | 0.0 | 0.00 | 0.01 | 0.01 | 97 | 1015.1 |
| 20260906150859 | 44 | 205 | 0.0 | 0.0 | 0.00 | 0.01 | 0.01 | 97 | 1015.1 |
| 20260906150353 | 44 | 205 | 0.0 | 0.0 | 0.00 | 0.01 | 0.01 | 97 | 1015.2 |
| 20260906145847 | 44 | 205 | 0.0 | 0.0 | 0.00 | 0.01 | 0.01 | 97 | 1015.2 |
| 20260906145343 | 44 | 205 | 0.0 | 0.0 | 0.00 | 0.01 | 0.01 | 97 | 1015.2 |
| 20260906144835 | 44 | 204 | 0.0 | 0.0 | 0.00 | 0.01 | 0.01 | 97 | 1015.2 |
| 20260906144329 | 44 | 204 | 0.0 | 0.0 | 0.00 | 0.01 | 0.01 | 96 | 1015.2 |
| 20260906143822 | 44 | 204 | 0.0 | 0.0 | 0.00 | 0.01 | 0.01 | 96 | 1015.2 |
| 20260906143319 | 44 | 204 | 0.0 | 1.0 | 0.00 | 0.01 | 0.01 | 96 | 1015.2 |
| 20260906142811 | 44 | 204 | 0.0 | 1.0 | 0.00 | 0.01 | 0.01 | 96 | 1015.3 |
| 20260906142306 | 44 | 204 | 0.0 | 0.0 | 0.00 | 0.01 | 0.01 | 96 | 1015.3 |
| 20260906141759 | 44 | 204 | 0.0 | 0.0 | 0.00 | 0.01 | 0.01 | 96 | 1015.3 |
| 20260906141255 | 44 | 194 | 0.0 | 0.0 | 0.00 | 0.01 | 0.01 | 96 | 1015.2 |
| 20260906141005 | 44 | 197 | 0.0 | 0.0 | 0.00 | 0.01 | 0.01 | 96 | 1015.1 |
| 20260906140241 | 44 | 192 | 0.0 | 0.0 | 0.00 | 0.01 | 0.01 | 96 | 1015.1 |
| 20260906135735 | 44 | 192 | 0.0 | 1.0 | 0.00 | 0.01 | 0.01 | 96 | 1015.1 |
| 20260906135231 | 44 | 192 | 0.0 | 2.0 | 0.00 | 0.01 | 0.01 | 96 | 1015.1 |
| 20260906134723 | 44 | 192 | 0.0 | 2.0 | 0.00 | 0.01 | 0.01 | 96 | 1015.1 |
| 20260906134216 | 44 | 214 | 0.0 | 0.0 | 0.00 | 0.01 | 0.01 | 96 | 1015.1 |
| 20260906133710 | 45 | 214 | 0.0 | 1.0 | 0.00 | 0.01 | 0.01 | 96 | 1015.1 |
| 20260906133207 | 45 | 214 | 0.0 | 2.0 | 0.00 | 0.01 | 0.01 | 96 | 1015.1 |
| 20260906132659 | 45 | 214 | 0.0 | 2.0 | 0.00 | 0.01 | 0.01 | 96 | 1015.1 |
| 20260906132152 | 45 | 215 | 0.0 | 1.0 | 0.00 | 0.01 | 0.01 | 96 | 1015.1 |
| 20260906131646 | 45 | 221 | 0.0 | 0.0 | 0.00 | 0.01 | 0.01 | 96 | 1015.1 |
| 20260906131144 | 45 | 221 | 0.0 | 0.0 | 0.00 | 0.01 | 0.01 | 96 | 1015.0 |
| 20260906130635 | 45 | 221 | 0.0 | 0.0 | 0.00 | 0.01 | 0.01 | 96 | 1015.1 |
| 20260906130129 | 45 | 221 | 0.0 | 0.0 | 0.00 | 0.01 | 0.01 | 96 | 1015.1 |
| 20260906125623 | 45 | 221 | 0.0 | 0.0 | 0.00 | 0.01 | 0.01 | 96 | 1015.1 |
| 20260906125119 | 45 | 221 | 0.0 | 0.0 | 0.00 | 0.01 | 0.01 | 96 | 1015.1 |
| 20260906124611 | 45 | 221 | 0.0 | 0.0 | 0.00 | 0.01 | 0.01 | 96 | 1015.1 |
| 20260906124105 | 45 | 221 | 0.0 | 0.0 | 0.00 | 0.01 | 0.01 | 96 | 1015.2 |
| 20260906123559 | 46 | 221 | 0.0 | 0.0 | 0.00 | 0.01 | 0.01 | 96 | 1015.1 |
| 20260906123314 | 46 | 221 | 0.0 | 0.0 | 0.00 | 0.01 | 0.01 | 96 | 1015.2 |
| 20260906122547 | 46 | 221 | 0.0 | 0.0 | 0.00 | 0.01 | 0.01 | 96 | 1015.2 |
| 20260906122040 | 46 | 221 | 0.0 | 0.0 | 0.00 | 0.01 | 0.01 | 96 | 1015.2 |
| 20260906121535 | 46 | 221 | 0.0 | 3.0 | 0.00 | 0.01 | 0.01 | 96 | 1015.2 |
| 20260906121031 | 46 | 221 | 1.0 | 3.0 | 0.01 | 0.01 | 0.01 | 96 | 1015.2 |
| 20260906120523 | 46 | 178 | 1.0 | 3.0 | 0.01 | 0.01 | 0.01 | 96 | 1015.2 |
| 20260906120017 | 46 | 190 | 0.0 | 3.0 | 0.01 | 0.01 | 0.01 | 96 | 1015.2 |
| 20260906115512 | 46 | 202 | 0.0 | 1.0 | 0.01 | 0.01 | 0.01 | 96 | 1015.2 |
| 20260906115006 | 46 | 204 | 0.0 | 1.0 | 0.01 | 0.01 | 0.01 | 96 | 1015.2 |
| 20260906114718 | 46 | 204 | 0.0 | 2.0 | 0.01 | 0.01 | 0.01 | 96 | 1015.3 |
| 20260906113953 | 46 | 207 | 1.0 | 2.0 | 0.01 | 0.01 | 0.01 | 96 | 1015.3 |
| 20260906113451 | 46 | 205 | 1.0 | 4.0 | 0.01 | 0.01 | 0.01 | 96 | 1015.2 |
| 20260906112950 | 46 | 205 | 1.0 | 4.0 | 0.01 | 0.01 | 0.01 | 96 | 1015.2 |
| 20260906112450 | 46 | 207 | 1.0 | 2.0 | 0.01 | 0.01 | 0.01 | 96 | 1015.2 |
| 20260906111950 | 46 | 200 | 1.0 | 3.0 | 0.01 | 0.01 | 0.01 | 96 | 1015.2 |
| 20260906111450 | 46 | 190 | 1.0 | 3.0 | 0.01 | 0.01 | 0.01 | 96 | 1015.3 |
| 20260906110948 | 46 | 182 | 0.0 | 3.0 | 0.00 | 0.00 | 0.00 | 96 | 1015.3 |
| 20260906110446 | 46 | 196 | 1.0 | 2.0 | 0.00 | 0.00 | 0.00 | 96 | 1015.3 |
| 20260906105946 | 46 | 196 | 0.0 | 2.0 | 0.00 | 0.00 | 0.00 | 96 | 1015.3 |
| 20260906105447 | 46 | 205 | 0.0 | 0.0 | 0.00 | 0.00 | 0.00 | 96 | 1015.3 |
| 20260906104950 | 46 | 205 | 0.0 | 0.0 | 0.00 | 0.00 | 0.00 | 96 | 1015.4 |
| 20260906104448 | 46 | 205 | 0.0 | 0.0 | 0.00 | 0.00 | 0.00 | 95 | 1015.5 |
| 20260906103948 | 46 | 205 | 0.0 | 1.0 | 0.00 | 0.00 | 0.00 | 95 | 1015.5 |
| 20260906103448 | 46 | 205 | 0.0 | 1.0 | 0.00 | 0.00 | 0.00 | 95 | 1015.5 |
| 20260906103220 | 46 | 205 | 0.0 | 0.0 | 0.00 | 0.00 | 0.00 | 96 | 1015.5 |
| 20260906102452 | 46 | 205 | 0.0 | 0.0 | 0.00 | 0.00 | 0.00 | 96 | 1015.5 |
| 20260906101951 | 46 | 205 | 0.0 | 0.0 | 0.00 | 0.00 | 0.00 | 96 | 1015.4 |
| 20260906101452 | 47 | 205 | 0.0 | 0.0 | 0.00 | 0.00 | 0.00 | 96 | 1015.5 |
| 20260906100949 | 47 | 205 | 0.0 | 0.0 | 0.00 | 0.00 | 0.00 | 95 | 1015.5 |
| 20260906100455 | 47 | 205 | 0.0 | 0.0 | 0.00 | 0.00 | 0.00 | 95 | 1015.4 |
| 20260906095952 | 47 | 205 | 0.0 | 1.0 | 0.00 | 0.00 | 0.00 | 95 | 1015.4 |
| 20260906095452 | 47 | 205 | 0.0 | 1.0 | 0.00 | 0.00 | 0.00 | 96 | 1015.4 |
| 20260906094952 | 47 | 205 | 0.0 | 1.0 | 0.00 | 0.00 | 0.00 | 96 | 1015.4 |
| 20260906094708 | 47 | 205 | 0.0 | 0.0 | 0.00 | 0.00 | 0.00 | 96 | 1015.4 |
| 20260906093947 | 47 | 205 | 0.0 | 0.0 | 0.00 | 0.00 | 0.00 | 95 | 1015.3 |
| 20260906093445 | 47 | 205 | 0.0 | 0.0 | 0.00 | 0.00 | 0.00 | 95 | 1015.3 |
| 20260906092946 | 47 | 205 | 0.0 | 0.0 | 0.00 | 0.00 | 0.00 | 95 | 1015.4 |
| 20260906092443 | 47 | 205 | 0.0 | 1.0 | 0.00 | 0.00 | 0.00 | 95 | 1015.3 |
| 20260906091944 | 47 | 205 | 0.0 | 1.0 | 0.00 | 0.00 | 0.00 | 96 | 1015.3 |
| 20260906091443 | 48 | 205 | 0.0 | 2.0 | 0.00 | 0.00 | 0.00 | 96 | 1015.4 |
| 20260906091205 | 48 | 205 | 0.0 | 2.0 | 0.00 | 0.00 | 0.00 | 96 | 1015.3 |
| 20260906090441 | 48 | 205 | 0.0 | 0.0 | 0.00 | 0.00 | 0.00 | 96 | 1015.3 |
| 20260906085938 | 48 | 205 | 0.0 | 0.0 | 0.00 | 0.00 | 0.00 | 96 | 1015.4 |
| 20260906085435 | 48 | 205 | 0.0 | 2.0 | 0.00 | 0.00 | 0.00 | 96 | 1015.4 |
| 20260906085202 | 48 | 205 | 0.0 | 3.0 | 0.00 | 0.00 | 0.00 | 96 | 1015.4 |
| 20260906085035 | 48 | 205 | 0.0 | 2.0 | 0.00 | 0.00 | 0.00 | 96 | 1015.4 |
| 20260906084434 | 48 | 205 | 0.0 | 3.0 | 0.00 | 0.00 | 0.00 | 96 | 1015.4 |
| 20260906083436 | 48 | 205 | 0.0 | 1.0 | 0.00 | 0.00 | 0.00 | 96 | 1015.4 |
| 20260906082930 | 48 | 205 | 0.0 | 1.0 | 0.00 | 0.00 | 0.00 | 96 | 1015.4 |
| 20260906082426 | 48 | 205 | 0.0 | 1.0 | 0.00 | 0.00 | 0.00 | 96 | 1015.4 |
| 20260906081920 | 48 | 205 | 0.0 | 3.0 | 0.00 | 0.00 | 0.00 | 96 | 1015.4 |
| 20260906081413 | 48 | 205 | 0.0 | 3.0 | 0.00 | 0.00 | 0.00 | 96 | 1015.4 |
| 20260906080907 | 48 | 205 | 1.0 | 4.0 | 0.00 | 0.00 | 0.00 | 96 | 1015.3 |
| 20260906080403 | 48 | 205 | 1.0 | 4.0 | 0.00 | 0.00 | 0.00 | 95 | 1015.4 |
| 20260906075851 | 48 | 210 | 1.0 | 3.0 | 0.00 | 0.00 | 0.00 | 95 | 1015.4 |
| 20260906075349 | 48 | 225 | 0.0 | 2.0 | 0.00 | 0.00 | 0.00 | 95 | 1015.5 |
| 20260906075102 | 48 | 217 | 1.0 | 3.0 | 0.00 | 0.00 | 0.00 | 95 | 1015.6 |
| 20260906074945 | 48 | 215 | 0.0 | 2.0 | 0.00 | 0.00 | 0.00 | 95 | 1015.5 |
| 20260906073831 | 48 | 217 | 1.0 | 3.0 | 0.00 | 0.00 | 0.00 | 95 | 1015.6 |
| 20260906073325 | 49 | 211 | 1.0 | 3.0 | 0.00 | 0.00 | 0.00 | 95 | 1015.6 |
| 20260906073044 | 49 | 209 | 0.0 | 2.0 | 0.00 | 0.00 | 0.00 | 95 | 1015.6 |
| 20260906072312 | 49 | 209 | 0.0 | 1.0 | 0.00 | 0.00 | 0.00 | 95 | 1015.7 |
| 20260906071809 | 49 | 209 | 1.0 | 3.0 | 0.00 | 0.00 | 0.00 | 95 | 1015.7 |
| 20260906071303 | 49 | 214 | 1.0 | 3.0 | 0.00 | 0.00 | 0.00 | 95 | 1015.8 |
| 20260906071027 | 49 | 212 | 1.0 | 2.0 | 0.00 | 0.00 | 0.00 | 95 | 1015.8 |
| 20260906070253 | 49 | 204 | 0.0 | 2.0 | 0.00 | 0.00 | 0.00 | 95 | 1015.8 |
| 20260906065750 | 49 | 205 | 0.0 | 2.0 | 0.00 | 0.01 | 0.01 | 95 | 1015.9 |
| 20260906065517 | 49 | 205 | 0.0 | 1.0 | 0.00 | 0.01 | 0.01 | 95 | 1015.9 |
| 20260906064751 | 49 | 205 | 0.0 | 2.0 | 0.00 | 0.01 | 0.01 | 95 | 1015.9 |
| 20260906064249 | 50 | 205 | 0.0 | 2.0 | 0.00 | 0.01 | 0.01 | 95 | 1015.9 |
| 20260906064007 | 50 | 200 | 0.0 | 2.0 | 0.00 | 0.01 | 0.01 | 95 | 1015.9 |
| 20260906063246 | 50 | 200 | 1.0 | 3.0 | 0.00 | 0.01 | 0.01 | 95 | 1015.9 |
| 20260906062742 | 50 | 200 | 1.0 | 3.0 | 0.00 | 0.01 | 0.01 | 95 | 1015.8 |
| 20260906062239 | 50 | 198 | 1.0 | 3.0 | 0.00 | 0.01 | 0.01 | 95 | 1015.9 |
| 20260906061741 | 50 | 197 | 1.0 | 3.0 | 0.00 | 0.01 | 0.01 | 95 | 1015.9 |
| 20260906061241 | 50 | 208 | 1.0 | 3.0 | 0.00 | 0.01 | 0.01 | 95 | 1015.9 |
| 20260906060739 | 50 | 196 | 1.0 | 4.0 | 0.00 | 0.01 | 0.01 | 95 | 1015.9 |
| 20260906060241 | 50 | 212 | 2.0 | 4.0 | 0.00 | 0.01 | 0.01 | 95 | 1015.9 |
| 20260906055740 | 51 | 175 | 1.0 | 4.0 | 0.00 | 0.01 | 0.01 | 95 | 1015.9 |
| 20260906055455 | 51 | 206 | 1.0 | 3.0 | 0.00 | 0.01 | 0.01 | 94 | 1016.0 |
| 20260906054735 | 51 | 182 | 1.0 | 3.0 | 0.00 | 0.01 | 0.01 | 94 | 1016.0 |
| 20260906054249 | 51 | 203 | 1.0 | 3.0 | 0.00 | 0.01 | 0.01 | 94 | 1016.1 |
| 20260906053747 | 51 | 202 | 0.0 | 2.0 | 0.00 | 0.01 | 0.01 | 94 | 1016.2 |
| 20260906053240 | 51 | 202 | 0.0 | 2.0 | 0.00 | 0.01 | 0.01 | 94 | 1016.2 |
| 20260906052732 | 51 | 202 | 1.0 | 2.0 | 0.00 | 0.01 | 0.01 | 94 | 1016.2 |
| 20260906052233 | 51 | 202 | 1.0 | 2.0 | 0.00 | 0.01 | 0.01 | 93 | 1016.3 |
| 20260906051729 | 51 | 190 | 1.0 | 4.0 | 0.00 | 0.01 | 0.01 | 93 | 1016.4 |
| 20260906051228 | 52 | 196 | 1.0 | 4.0 | 0.00 | 0.01 | 0.01 | 93 | 1016.4 |
| 20260906050729 | 52 | 210 | 0.0 | 2.0 | 0.00 | 0.01 | 0.01 | 93 | 1016.4 |
| 20260906050231 | 52 | 210 | 0.0 | 2.0 | 0.00 | 0.01 | 0.01 | 93 | 1016.4 |
| 20260906045726 | 52 | 210 | 0.0 | 2.0 | 0.00 | 0.01 | 0.01 | 93 | 1016.3 |
| 20260906045226 | 52 | 210 | 1.0 | 2.0 | 0.00 | 0.01 | 0.01 | 93 | 1016.4 |
| 20260906044726 | 53 | 213 | 1.0 | 2.0 | 0.00 | 0.01 | 0.01 | 93 | 1016.3 |
| 20260906044227 | 53 | 222 | 0.0 | 2.0 | 0.00 | 0.01 | 0.01 | 92 | 1016.4 |
| 20260906043726 | 53 | 222 | 0.0 | 1.0 | 0.00 | 0.01 | 0.01 | 92 | 1016.4 |
| 20260906043228 | 53 | 222 | 0.0 | 1.0 | 0.00 | 0.01 | 0.01 | 92 | 1016.4 |
| 20260906042725 | 53 | 222 | 0.0 | 2.0 | 0.00 | 0.01 | 0.01 | 92 | 1016.5 |
| 20260906042227 | 54 | 222 | 0.0 | 3.0 | 0.00 | 0.01 | 0.01 | 91 | 1016.5 |
| 20260906041725 | 54 | 227 | 0.0 | 3.0 | 0.00 | 0.01 | 0.01 | 91 | 1016.5 |
| 20260906041226 | 54 | 223 | 0.0 | 2.0 | 0.00 | 0.01 | 0.01 | 91 | 1016.5 |
| 20260906040723 | 54 | 223 | 1.0 | 4.0 | 0.00 | 0.01 | 0.01 | 91 | 1016.4 |
| 20260906040222 | 55 | 215 | 1.0 | 4.0 | 0.00 | 0.01 | 0.01 | 90 | 1016.4 |
| 20260906035721 | 55 | 227 | 0.0 | 2.0 | 0.00 | 0.01 | 0.01 | 90 | 1016.4 |
| 20260906035220 | 55 | 227 | 0.0 | 2.0 | 0.00 | 0.01 | 0.01 | 90 | 1016.4 |
| 20260906034720 | 55 | 227 | 0.0 | 1.0 | 0.00 | 0.01 | 0.01 | 90 | 1016.4 |
| 20260906034214 | 56 | 227 | 0.0 | 1.0 | 0.00 | 0.01 | 0.01 | 89 | 1016.4 |
| 20260906033708 | 56 | 227 | 0.0 | 2.0 | 0.00 | 0.01 | 0.01 | 89 | 1016.3 |
| 20260906033203 | 56 | 227 | 0.0 | 2.0 | 0.00 | 0.01 | 0.01 | 89 | 1016.2 |
| 20260906032656 | 56 | 227 | 0.0 | 1.0 | 0.00 | 0.01 | 0.01 | 89 | 1016.2 |
| 20260906032150 | 57 | 227 | 0.0 | 2.0 | 0.00 | 0.01 | 0.01 | 89 | 1016.0 |
| 20260906031644 | 57 | 227 | 1.0 | 4.0 | 0.00 | 0.01 | 0.01 | 89 | 1016.0 |
| 20260906031138 | 57 | 232 | 0.0 | 4.0 | 0.00 | 0.01 | 0.01 | 88 | 1015.9 |
| 20260906030633 | 58 | 224 | 0.0 | 0.0 | 0.00 | 0.01 | 0.01 | 88 | 1015.9 |
| 20260906030127 | 58 | 224 | 0.0 | 2.0 | 0.00 | 0.01 | 0.01 | 87 | 1015.8 |
| 20260906025620 | 59 | 224 | 0.0 | 2.0 | 0.00 | 0.01 | 0.01 | 86 | 1015.8 |
| 20260906025113 | 59 | 224 | 0.0 | 0.0 | 0.00 | 0.01 | 0.01 | 86 | 1015.7 |
| 20260906024608 | 59 | 224 | 0.0 | 0.0 | 0.00 | 0.01 | 0.01 | 86 | 1015.7 |
| 20260906024103 | 60 | 224 | 0.0 | 2.0 | 0.00 | 0.01 | 0.01 | 85 | 1015.6 |
| 20260906023825 | 60 | 224 | 0.0 | 2.0 | 0.00 | 0.01 | 0.01 | 85 | 1015.7 |
| 20260906023050 | 60 | 224 | 0.0 | 2.0 | 0.00 | 0.01 | 0.01 | 84 | 1015.6 |
| 20260906022544 | 61 | 224 | 0.0 | 2.0 | 0.00 | 0.01 | 0.01 | 84 | 1015.6 |
| 20260906022039 | 62 | 224 | 0.0 | 2.0 | 0.00 | 0.01 | 0.01 | 83 | 1015.5 |
| 20260906021531 | 62 | 217 | 0.0 | 1.0 | 0.00 | 0.01 | 0.01 | 83 | 1015.5 |
| 20260906021026 | 62 | 218 | 0.0 | 1.0 | 0.00 | 0.01 | 0.01 | 82 | 1015.5 |
| 20260906020521 | 63 | 213 | 0.0 | 1.0 | 0.00 | 0.01 | 0.01 | 82 | 1015.5 |
| 20260906020015 | 64 | 213 | 0.0 | 1.0 | 0.00 | 0.01 | 0.01 | 81 | 1015.5 |
| 20260906015508 | 64 | 213 | 0.0 | 2.0 | 0.00 | 0.01 | 0.01 | 80 | 1015.4 |
| 20260906015233 | 64 | 218 | 1.0 | 3.0 | 0.00 | 0.01 | 0.01 | 79 | 1015.4 |
| 20260906014455 | 65 | 218 | 1.0 | 4.0 | 0.00 | 0.01 | 0.01 | 80 | 1015.4 |
| 20260906014222 | 65 | 225 | 1.0 | 4.0 | 0.00 | 0.01 | 0.01 | 78 | 1015.3 |
| 20260906013714 | 65 | 213 | 1.0 | 4.0 | 0.00 | 0.01 | 0.01 | 79 | 1015.2 |
| 20260906012938 | 66 | 223 | 1.0 | 4.0 | 0.00 | 0.01 | 0.01 | 76 | 1015.2 |
| 20260906012432 | 66 | 226 | 1.0 | 3.0 | 0.00 | 0.01 | 0.01 | 75 | 1015.1 |
| 20260906011932 | 66 | 209 | 1.0 | 2.0 | 0.00 | 0.01 | 0.01 | 73 | 1015.1 |
| 20260906011647 | 66 | 229 | 1.0 | 2.0 | 0.00 | 0.01 | 0.01 | 81 | 1015.0 |
| 20260906010929 | 66 | 241 | 0.0 | 2.0 | 0.00 | 0.01 | 0.01 | 78 | 1015.0 |
| 20260906010438 | 67 | 55 | 0.0 | 1.0 | 0.00 | 0.01 | 0.01 | 79 | 1014.9 |
| 20260906010148 | 67 | 55 | 0.0 | 1.0 | 0.00 | 0.01 | 0.01 | 77 | 1015.0 |
| 20260906005645 | 67 | 53 | 0.0 | 1.0 | 0.00 | 0.01 | 0.01 | 74 | 1015.0 |
| 20260906004927 | 67 | 200 | 0.0 | 1.0 | 0.00 | 0.01 | 0.01 | 76 | 1015.0 |
| 20260906004643 | 67 | 200 | 0.0 | 2.0 | 0.00 | 0.01 | 0.01 | 74 | 1014.9 |
| 20260906003927 | 67 | 200 | 0.0 | 3.0 | 0.00 | 0.01 | 0.01 | 76 | 1015.0 |
| 20260906003426 | 68 | 202 | 1.0 | 3.0 | 0.00 | 0.01 | 0.01 | 74 | 1015.0 |
| 20260906002925 | 68 | 340 | 0.0 | 2.0 | 0.00 | 0.01 | 0.01 | 70 | 1014.9 |
| 20260906002426 | 68 | 35 | 1.0 | 3.0 | 0.00 | 0.01 | 0.01 | 70 | 1014.9 |
| 20260906002207 | 68 | 355 | 1.0 | 4.0 | 0.00 | 0.02 | 0.01 | 61 | 1014.8 |
| 20260906001926 | 68 | 219 | 1.0 | 4.0 | 0.00 | 0.01 | 0.01 | 71 | 1014.9 |
| 20260906001150 | 68 | 350 | 1.0 | 4.0 | 0.00 | 0.03 | 0.01 | 64 | 1014.8 |
| 20260906000426 | 68 | 196 | 1.0 | 4.0 | 0.00 | 0.04 | 0.01 | 67 | 1014.8 |
| 20260905235926 | 68 | 90 | 1.0 | 5.0 | 0.00 | 0.05 | 0.01 | 62 | 1014.7 |
| 20260905235421 | 68 | 9 | 1.0 | 5.0 | 0.00 | 0.06 | 0.01 | 64 | 1014.7 |
| 20260905234920 | 68 | 108 | 1.0 | 3.0 | 0.00 | 0.07 | 0.01 | 62 | 1014.8 |